Wind_Speed
6 12 14 17 21 22 24 25 26 25 25 25 25 26 25 23 22 20 17 16 14 15 17 18 19 20 20 21 22 21 23 25 26 27 27 29 33 32 29 27 26 26 22
9 14 14 14 18 22 22 24 26 26 26 27 28 28 25 25 23 22 21 20 20 21 22 23 22 21 20 22 22 23 23 23 23 26 28 28 30 34 33 29 28 28 27
12 19 16 15 14 19 22 24 25 26 28 31 31 29 25 22 20 21 22 22 23 23 24 25 23 24 23 22 22 22 22 23 23 22 23 25 27 30 33 33 30 29 29
15 21 16 15 15 17 22 25 26 28 31 36 36 31 25 22 21 22 22 23 24 24 25 25 25 24 25 23 22 21 21 21 23 23 21 21 23 27 31 33 34 30 24
17 21 15 14 11 20 21 26 27 27 30 35 38 33 28 26 24 25 25 26 26 25 25 26 27 26 26 26 25 23 22 21 22 22 23 23 23 25 28 32 34 33 34
14 21 21 18 15 25 25 25 28 30 32 35 36 33 30 27 25 25 25 25 26 27 26 25 27 25 26 27 27 27 25 24 25 25 25 25 25 25 28 31 33 36 35
19 21 25 20 18 27 27 25 27 31 32 34 33 32 31 29 28 27 26 26 27 27 27 26 26 24 25 27 27 29 27 26 26 24 24 25 25 26 27 30 33 35 35
23 24 24 22 26 30 26 24 25 31 32 35 32 31 33 33 32 30 30 29 29 29 29 31 28 24 24 26 26 28 28 29 25 24 24 24 24 26 27 26 33 34 36
26 26 26 25 28 27 24 26 28 31 31 32 31 33 30 31 33 33 32 32 33 33 32 32 31 28 25 27 26 26 27 27 26 25 25 23 23 26 27 27 29 35 35
31 26 25 25 29 26 25 26 29 33 32 33 33 32 31 31 33 33 33 34 35 36 35 34 33 30 26 26 26 27 25 25 27 27 26 25 24 26 29 28 26 33 32
34 29 24 25 26 26 28 30 33 34 34 34 35 37 39 34 33 33 35 36 37 38 38 35 33 31 29 27 25 24 26 26 25 26 26 25 26 28 29 31 29 28 35
33 31 26 27 29 29 30 30 32 34 35 34 35 43 41 40 38 34 34 35 38 39 35 34 34 33 31 29 26 29 28 28 26 26 28 26 24 26 27 27 31 28 32
36 35 29 30 32 31 33 35 36 34 34 33 36 39 43 43 43 33 34 34 38 36 32 32 32 32 30 28 30 29 29 31 32 27 27 27 24 25 26 24 27 29 28
35 32 33 35 36 34 37 37 39 35 36 37 38 39 43 46 40 34 34 33 35 33 32 31 30 31 24 27 29 31 31 33 33 28 27 28 25 25 25 23 24 26 27
39 35 39 41 41 38 38 39 39 37 37 40 40 42 44 43 40 36 34 34 33 33 32 30 29 31 29 30 33 35 35 34 32 31 30 28 27 26 26 23 23 24 26
43 38 43 44 45 44 39 41 40 37 38 41 45 47 45 43 41 39 38 35 33 34 32 30 32 33 30 32 36 39 37 35 33 34 32 29 29 28 28 25 24 24 24
39 35 40 48 50 49 44 43 42 41 38 41 47 48 43 41 41 42 41 37 35 33 33 31 33 32 34 37 39 38 38 36 35 35 34 32 32 29 31 29 26 26 25
47 41 45 48 51 52 49 48 45 44 43 42 44 42 40 40 42 42 44 37 35 33 32 33 34 34 37 40 39 36 37 36 36 35 33 33 31 30 31 31 28 27 26
55 49 55 57 56 52 50 52 49 45 42 43 42 39 40 42 43 46 43 37 33 32 32 34 34 38 38 37 35 35 35 32 31 29 28 27 28 26 29 31 29 27 26
51 56 57 58 55 54 54 55 51 45 42 41 42 41 42 43 44 44 39 34 32 32 33 34 37 38 38 34 35 34 31 29 29 29 29 27 27 27 26 29 29 27 25
57 59 56 56 56 55 54 55 50 45 41 41 42 43 42 44 42 39 33 29 30 30 34 35 39 37 35 33 33 30 28 28 30 28 26 27 26 26 24 28 27 27 26
61 60 57 56 55 52 53 51 48 43 42 41 42 40 42 42 35 29 28 28 28 32 34 36 37 36 32 32 28 27 28 29 29 26 24 25 25 24 24 29 27 28 27
59 60 58 54 54 51 51 51 48 42 41 40 40 40 41 33 30 26 27 28 29 31 33 35 32 29 30 26 23 23 28 26 26 24 24 22 23 24 22 27 27 29 28
55 57 54 53 50 47 45 45 43 40 40 39 38 40 35 30 25 26 28 28 28 30 32 33 31 29 25 23 23 27 28 25 26 23 20 18 18 20 25 27 26 30 28
48 51 49 45 42 40 39 39 36 38 39 38 38 35 31 24 26 28 27 26 28 29 32 31 28 24 23 22 24 25 24 23 23 21 16 15 16 17 20 26 25 29 29
44 45 41 39 33 31 33 30 33 37 36 37 37 30 26 26 27 26 26 27 27 29 28 28 24 22 21 21 24 25 20 19 19 16 13 12 14 16 20 25 25 29 29
Wind_Direction
347 344 343 353 353 354 345 343 342 346 348 349 348 348 344 338 335 326 316 310 310 307 307 308 310 308 309 307 302 297 292 287 281 277 271 268 264 266 262 260 260 259 247
327 324 317 330 344 340 336 335 336 339 343 345 344 342 339 334 330 322 317 317 318 317 317 316 316 313 308 304 303 303 299 294 287 281 275 270 266 261 261 257 255 254 251
339 330 310 301 333 326 324 319 324 334 336 340 341 340 335 333 324 319 317 321 320 317 315 314 313 311 309 306 305 301 298 297 291 285 279 273 267 265 261 258 254 253 254
334 336 310 301 306 320 314 312 318 324 329 335 340 341 337 330 325 319 318 321 318 315 313 314 314 313 311 309 306 300 296 293 289 285 281 276 272 265 262 259 253 250 261
331 349 320 309 308 320 315 311 311 316 319 328 331 336 335 332 324 318 323 326 325 323 318 313 310 311 313 313 312 306 300 295 288 283 281 278 274 267 260 256 254 247 243
331 332 324 305 298 314 310 306 306 316 317 322 327 328 327 325 322 319 320 321 318 319 318 311 304 309 314 311 313 312 307 300 291 289 285 279 275 268 261 256 253 248 240
311 323 324 293 280 306 305 304 306 311 310 315 328 325 322 322 319 317 318 315 315 316 313 310 305 307 313 312 312 314 310 310 300 293 290 282 271 267 267 255 251 249 247
305 313 319 300 292 298 297 297 303 305 306 312 332 325 324 324 319 314 314 315 312 313 315 314 310 306 311 312 314 314 309 307 297 293 294 288 269 261 263 262 250 248 246
297 307 310 297 299 296 293 296 299 299 305 314 326 327 324 322 318 313 309 308 311 312 312 312 312 306 310 315 312 311 302 301 295 289 289 287 277 261 260 260 253 248 248
293 301 301 294 298 287 291 293 295 301 308 314 321 326 321 325 324 313 307 308 308 310 311 311 311 306 307 311 311 309 302 305 296 291 287 281 278 270 260 258 256 247 249
289 299 295 297 296 293 289 287 290 297 304 311 316 324 324 324 321 311 307 307 306 304 306 309 309 303 298 304 304 306 304 306 297 289 287 286 273 273 267 254 253 249 243
283 294 284 293 296 294 293 294 290 294 304 312 318 319 321 322 324 310 306 306 305 302 302 303 302 298 291 303 300 296 299 299 300 287 287 286 276 272 265 257 248 248 243
279 287 277 291 297 290 290 294 294 298 304 312 314 317 317 319 319 304 304 299 298 304 298 297 304 301 291 300 302 313 297 297 299 284 282 281 277 268 260 259 251 247 243
279 279 284 293 297 290 290 294 297 303 307 311 314 316 316 315 310 300 301 297 298 297 295 301 306 313 307 297 304 307 301 296 295 285 278 276 270 264 258 254 251 245 242
273 274 284 291 294 289 290 292 297 301 305 308 312 311 311 310 307 298 298 299 300 294 295 302 306 309 301 304 305 300 297 295 292 285 279 274 265 256 256 251 250 247 239
275 275 287 289 290 289 291 287 291 295 298 303 307 307 305 305 301 298 298 295 295 295 295 300 305 306 307 304 300 299 297 292 290 287 281 274 264 252 249 251 247 244 239
274 281 289 284 286 289 287 284 287 291 296 301 301 301 301 302 299 296 297 294 295 295 294 296 303 305 305 300 297 297 296 296 292 289 282 277 266 255 244 244 242 241 235
263 272 282 289 289 282 283 281 284 290 297 300 300 293 299 297 296 294 295 291 293 290 290 292 301 303 300 297 296 295 297 295 296 293 285 274 266 256 246 240 238 237 232
263 269 278 283 287 278 277 279 283 292 298 299 294 298 295 294 293 297 295 292 287 286 287 293 298 300 296 295 295 299 299 298 298 297 292 277 267 256 246 240 236 232 229
267 270 276 276 278 273 274 276 283 292 293 289 294 295 293 293 298 294 289 284 283 284 288 296 299 296 294 295 301 301 298 296 295 290 290 281 271 252 241 239 237 230 225
263 269 271 269 273 269 271 274 282 291 286 287 292 292 293 296 292 287 285 285 285 288 292 297 294 293 296 300 300 294 295 298 297 291 288 280 270 249 240 236 232 227 223
262 263 263 267 268 265 268 276 281 284 278 286 290 292 292 292 286 283 286 286 288 290 295 295 293 293 295 296 291 296 299 295 291 289 288 279 264 245 233 230 225 220 220
256 258 257 261 261 264 269 275 278 274 278 284 290 290 292 285 282 288 287 288 292 293 293 292 293 293 294 290 293 300 305 293 293 289 291 278 253 240 232 226 220 215 215
247 249 253 258 264 267 269 269 269 271 277 283 283 288 284 281 286 286 286 290 291 291 292 294 295 295 292 291 295 299 299 297 300 293 285 272 252 235 224 218 212 210 212
248 252 256 262 264 264 267 268 268 272 277 280 284 282 278 282 284 285 288 289 288 291 294 294 293 289 289 289 300 305 299 296 297 293 279 271 253 237 213 212 210 206 208
249 253 256 260 263 261 260 267 270 273 276 279 282 275 276 280 282 286 286 286 289 293 293 292 289 286 289 301 305 306 294 292 295 289 274 262 252 240 211 206 207 205 202
Height
5905 5902 5901 5897 5895 5893 5893 5890 5889 5887 5886 5886 5884 5883 5881 5879 5876 5877 5875 5873 5870 5869 5869 5868 5867 5866 5864 5862 5862 5860 5860 5859 5859 5859 5859 5860 5860 5860 5861 5861 5863 5864 5864
5902 5901 5900 5898 5895 5893 5892 5889 5888 5887 5886 5884 5882 5880 5879 5877 5873 5873 5871 5870 5867 5865 5864 5863 5863 5863 5861 5860 5858 5856 5855 5855 5854 5853 5854 5854 5855 5855 5856 5858 5858 5860 5860
5901 5899 5898 5897 5897 5894 5892 5890 5889 5885 5884 5882 5879 5876 5874 5874 5872 5871 5869 5866 5864 5861 5860 5859 5858 5858 5857 5856 5855 5853 5851 5850 5849 5849 5849 5849 5850 5850 5851 5853 5854 5854 5857
5898 5896 5895 5895 5896 5894 5891 5889 5887 5883 5881 5878 5875 5873 5871 5869 5868 5868 5866 5864 5861 5859 5857 5855 5854 5852 5851 5850 5850 5849 5848 5846 5845 5845 5845 5844 5845 5845 5846 5847 5848 5850 5851
5895 5894 5893 5893 5893 5892 5889 5887 5885 5882 5879 5877 5873 5871 5869 5867 5866 5865 5863 5860 5858 5856 5854 5851 5849 5848 5845 5844 5843 5843 5842 5841 5840 5840 5840 5840 5840 5840 5840 5841 5842 5844 5845
5891 5892 5893 5892 5891 5889 5887 5886 5884 5881 5878 5876 5873 5870 5869 5867 5866 5864 5861 5859 5857 5855 5852 5849 5846 5845 5842 5840 5838 5837 5836 5835 5834 5834 5835 5835 5834 5834 5834 5835 5836 5838 5840
5889 5889 5889 5890 5889 5886 5885 5883 5882 5879 5877 5874 5871 5868 5866 5865 5863 5861 5858 5857 5855 5852 5849 5846 5844 5841 5839 5836 5834 5832 5830 5830 5829 5829 5829 5829 5829 5828 5828 5829 5830 5831 5834
5886 5886 5885 5885 5886 5884 5882 5881 5879 5875 5873 5871 5868 5865 5862 5860 5858 5856 5855 5852 5850 5848 5845 5842 5840 5838 5835 5833 5831 5829 5826 5825 5824 5825 5824 5824 5824 5823 5823 5822 5823 5825 5828
5883 5883 5882 5881 5881 5880 5879 5877 5875 5873 5870 5868 5866 5862 5859 5857 5854 5851 5850 5847 5844 5841 5839 5837 5835 5833 5832 5829 5827 5825 5823 5821 5820 5820 5819 5818 5818 5818 5818 5818 5818 5819 5822
5878 5879 5878 5876 5875 5874 5874 5873 5870 5868 5865 5864 5861 5860 5857 5853 5850 5847 5845 5842 5839 5836 5835 5834 5832 5829 5827 5824 5823 5820 5818 5816 5815 5814 5813 5812 5813 5813 5813 5813 5814 5814 5815
5873 5874 5873 5872 5870 5870 5869 5868 5866 5864 5862 5860 5857 5855 5851 5849 5847 5843 5840 5837 5834 5832 5830 5829 5827 5824 5821 5819 5818 5816 5814 5811 5810 5808 5807 5807 5807 5807 5807 5808 5809 5809 5811
5869 5869 5868 5867 5866 5865 5864 5864 5862 5859 5857 5855 5852 5850 5847 5843 5842 5838 5835 5833 5830 5827 5825 5823 5820 5817 5816 5814 5813 5810 5809 5806 5804 5803 5801 5801 5800 5800 5800 5801 5802 5804 5806
5863 5864 5863 5861 5861 5860 5859 5857 5856 5853 5852 5851 5849 5846 5841 5837 5835 5833 5831 5829 5825 5823 5820 5816 5814 5811 5810 5809 5806 5804 5802 5800 5798 5796 5795 5794 5795 5795 5795 5796 5797 5798 5800
5857 5856 5856 5855 5855 5854 5852 5850 5849 5847 5846 5844 5842 5839 5836 5833 5830 5828 5826 5823 5820 5817 5813 5811 5809 5807 5804 5803 5800 5798 5796 5793 5792 5789 5788 5788 5788 5789 5789 5790 5791 5792 5794
5850 5849 5848 5848 5848 5846 5845 5845 5843 5842 5840 5838 5836 5833 5831 5828 5825 5823 5820 5817 5815 5811 5807 5805 5803 5801 5799 5796 5793 5791 5789 5787 5785 5783 5781 5781 5782 5782 5783 5784 5785 5786 5787
5844 5844 5841 5841 5840 5839 5839 5838 5837 5836 5834 5833 5829 5826 5825 5822 5819 5816 5814 5812 5809 5805 5802 5800 5797 5794 5792 5789 5787 5783 5781 5779 5777 5775 5774 5773 5775 5775 5776 5778 5779 5780 5782
5835 5836 5836 5834 5833 5834 5832 5831 5830 5829 5830 5828 5824 5819 5817 5816 5813 5810 5808 5805 5802 5799 5796 5794 5792 5789 5785 5783 5780 5777 5772 5771 5769 5767 5766 5766 5767 5768 5769 5771 5773 5775 5777
5828 5829 5828 5829 5828 5827 5825 5823 5822 5822 5822 5820 5816 5813 5811 5809 5806 5804 5801 5798 5796 5793 5791 5788 5786 5783 5780 5776 5773 5769 5766 5763 5760 5758 5757 5757 5758 5760 5762 5764 5766 5769 5772
5820 5820 5822 5822 5821 5819 5817 5815 5815 5816 5815 5811 5809 5806 5805 5803 5800 5797 5793 5791 5789 5787 5785 5783 5780 5777 5773 5770 5766 5762 5758 5755 5753 5751 5750 5750 5751 5753 5755 5758 5761 5764 5767
5812 5812 5814 5813 5813 5811 5808 5807 5808 5810 5808 5804 5803 5800 5798 5796 5793 5789 5786 5784 5782 5780 5779 5776 5773 5770 5767 5763 5759 5756 5752 5749 5747 5745 5744 5743 5744 5747 5749 5752 5755 5759 5763
5803 5804 5804 5803 5803 5801 5800 5800 5802 5803 5800 5798 5796 5794 5792 5789 5786 5782 5780 5778 5777 5775 5772 5770 5767 5763 5759 5756 5753 5749 5746 5743 5741 5740 5738 5737 5737 5739 5743 5746 5750 5754 5758
5793 5793 5793 5792 5792 5791 5792 5793 5795 5795 5793 5791 5790 5787 5785 5782 5779 5776 5774 5772 5772 5769 5766 5762 5759 5757 5753 5750 5747 5743 5741 5739 5737 5734 5733 5731 5730 5732 5735 5739 5745 5749 5753
5779 5780 5779 5783 5783 5782 5784 5786 5788 5786 5785 5784 5782 5781 5778 5775 5773 5770 5768 5767 5765 5762 5758 5756 5753 5750 5746 5744 5741 5739 5736 5734 5731 5729 5726 5724 5723 5727 5730 5733 5739 5744 5748
5768 5768 5770 5774 5775 5776 5778 5778 5779 5779 5778 5778 5776 5774 5771 5769 5766 5764 5763 5761 5758 5755 5752 5749 5747 5744 5741 5738 5736 5734 5731 5729 5726 5723 5721 5719 5719 5722 5725 5729 5734 5739 5744
5757 5759 5763 5766 5768 5769 5769 5770 5772 5772 5772 5770 5769 5767 5765 5762 5760 5759 5757 5754 5752 5749 5746 5743 5741 5739 5736 5734 5732 5729 5726 5723 5721 5718 5716 5715 5715 5717 5718 5725 5730 5736 5741
5750 5751 5755 5758 5761 5762 5763 5765 5765 5765 5765 5763 5762 5760 5758 5757 5755 5753 5751 5748 5746 5743 5740 5737 5735 5734 5732 5730 5727 5723 5721 5719 5716 5714 5712 5712 5713 5715 5717 5722 5728 5732 5737